| time (UTC) | temp F | wind direction | speed MPH | gust MPH | rain 1hr in | rain 24hr in | rain mn in | humidity % | barometer mb |
| 20260506044519 | 46 | 359 | 8.0 | 16.0 | 0.00 | 0.00 | 0.00 | 45 | 1002.1 |
| 20260506043017 | 46 | 213 | 4.0 | 12.0 | 0.00 | 0.00 | 0.00 | 47 | 1002.4 |
| 20260506041514 | 46 | 195 | 4.0 | 12.0 | 0.00 | 0.00 | 0.00 | 47 | 1002.4 |
| 20260506040018 | 47 | 182 | 6.0 | 16.0 | 0.00 | 0.00 | 0.00 | 47 | 1002.3 |
| 20260506034512 | 48 | 193 | 5.0 | 15.0 | 0.00 | 0.00 | 0.00 | 43 | 1002.3 |
| 20260506033015 | 48 | 209 | 6.0 | 11.0 | 0.00 | 0.00 | 0.00 | 42 | 1002.2 |
| 20260506031511 | 47 | 202 | 5.0 | 15.0 | 0.00 | 0.00 | 0.00 | 44 | 1002.1 |
| 20260506030012 | 47 | 201 | 8.0 | 15.0 | 0.00 | 0.00 | 0.00 | 46 | 1002.1 |
| 20260506024525 | 48 | 197 | 7.0 | 19.0 | 0.00 | 0.00 | 0.00 | 44 | 1001.9 |
| 20260506023008 | 49 | 182 | 4.0 | 13.0 | 0.00 | 0.00 | 0.00 | 42 | 1001.8 |
| 20260506021510 | 50 | 14 | 4.0 | 16.0 | 0.00 | 0.00 | 0.00 | 39 | 1001.7 |
| 20260506020006 | 51 | 294 | 9.0 | 18.0 | 0.00 | 0.00 | 0.00 | 35 | 1001.7 |
| 20260506014511 | 52 | 240 | 6.0 | 17.0 | 0.00 | 0.00 | 0.00 | 35 | 1001.6 |
| 20260506013004 | 53 | 359 | 10.0 | 21.0 | 0.00 | 0.00 | 0.00 | 33 | 1001.5 |
| 20260506011503 | 52 | 268 | 6.0 | 15.0 | 0.00 | 0.00 | 0.00 | 35 | 1001.4 |
| 20260506010001 | 50 | 359 | 7.0 | 13.0 | 0.00 | 0.00 | 0.00 | 38 | 1001.5 |
| 20260506004501 | 50 | 359 | 3.0 | 11.0 | 0.00 | 0.00 | 0.00 | 41 | 1001.4 |
| 20260506003100 | 50 | 253 | 6.0 | 12.0 | 0.00 | 0.00 | 0.00 | 40 | 1001.4 |
| 20260506001603 | 50 | 228 | 4.0 | 10.0 | 0.00 | 0.00 | 0.00 | 42 | 1001.2 |
| 20260506000119 | 50 | 273 | 5.0 | 11.0 | 0.00 | 0.00 | 0.00 | 42 | 1001.2 |
| 20260505234557 | 51 | 209 | 3.0 | 8.0 | 0.00 | 0.00 | 0.00 | 43 | 1000.9 |
| 20260505233059 | 51 | 359 | 7.0 | 11.0 | 0.00 | 0.00 | 0.00 | 40 | 1000.9 |
| 20260505231606 | 52 | 263 | 5.0 | 11.0 | 0.00 | 0.00 | 0.00 | 39 | 1000.9 |
| 20260505230105 | 53 | 359 | 5.0 | 12.0 | 0.00 | 0.00 | 0.00 | 39 | 1000.9 |
| 20260505224557 | 54 | 182 | 4.0 | 20.0 | 0.00 | 0.00 | 0.00 | 39 | 1000.5 |
| 20260505223052 | 53 | 359 | 5.0 | 18.0 | 0.00 | 0.00 | 0.00 | 39 | 1000.5 |
| 20260505221558 | 53 | 267 | 5.0 | 15.0 | 0.00 | 0.00 | 0.00 | 39 | 1000.4 |
| 20260505220051 | 53 | 359 | 7.0 | 14.0 | 0.00 | 0.00 | 0.00 | 39 | 1000.3 |
| 20260505214551 | 53 | 237 | 4.0 | 14.0 | 0.00 | 0.00 | 0.00 | 38 | 1000.2 |
| 20260505213053 | 54 | 359 | 10.0 | 20.0 | 0.00 | 0.00 | 0.00 | 36 | 1000.2 |
| 20260505211550 | 55 | 185 | 9.0 | 17.0 | 0.00 | 0.00 | 0.00 | 36 | 1000.0 |
| 20260505210049 | 55 | 210 | 9.0 | 16.0 | 0.00 | 0.00 | 0.00 | 36 | 999.9 |
| 20260505204551 | 55 | 176 | 7.0 | 20.0 | 0.00 | 0.00 | 0.00 | 36 | 999.6 |
| 20260505203055 | 54 | 229 | 7.0 | 11.0 | 0.00 | 0.00 | 0.00 | 38 | 999.5 |
| 20260505201547 | 55 | 193 | 5.0 | 19.0 | 0.00 | 0.00 | 0.00 | 37 | 999.4 |
| 20260505200046 | 53 | 242 | 8.0 | 22.0 | 0.00 | 0.00 | 0.00 | 40 | 999.2 |
| 20260505194558 | 54 | 262 | 2.0 | 14.0 | 0.00 | 0.00 | 0.00 | 39 | 999.1 |
| 20260505193041 | 53 | 260 | 6.0 | 10.0 | 0.00 | 0.00 | 0.00 | 41 | 999.1 |
| 20260505191552 | 54 | 232 | 6.0 | 14.0 | 0.00 | 0.00 | 0.00 | 40 | 999.2 |
| 20260505190041 | 54 | 283 | 8.0 | 17.0 | 0.00 | 0.00 | 0.00 | 41 | 999.3 |
| 20260505184537 | 53 | 266 | 5.0 | 11.0 | 0.00 | 0.00 | 0.00 | 48 | 999.1 |
| 20260505183034 | 51 | 281 | 2.0 | 6.0 | 0.00 | 0.00 | 0.00 | 50 | 999.0 |
| 20260505181536 | 51 | 284 | 0.0 | 8.0 | 0.00 | 0.00 | 0.00 | 56 | 999.0 |
| 20260505180039 | 50 | 310 | 1.0 | 4.0 | 0.00 | 0.00 | 0.00 | 62 | 998.7 |
| 20260505174532 | 50 | 359 | 3.0 | 8.0 | 0.00 | 0.00 | 0.00 | 63 | 998.7 |
| 20260505173029 | 50 | 359 | 3.0 | 7.0 | 0.00 | 0.00 | 0.00 | 59 | 998.6 |
| 20260505171526 | 51 | 354 | 2.0 | 8.0 | 0.00 | 0.00 | 0.00 | 61 | 998.6 |
| 20260505170025 | 49 | 315 | 2.0 | 7.0 | 0.00 | 0.00 | 0.00 | 65 | 998.5 |
| 20260505164519 | 47 | 243 | 0.0 | 2.0 | 0.00 | 0.00 | 0.00 | 71 | 998.3 |
| 20260505163016 | 44 | 244 | 0.0 | 2.0 | 0.00 | 0.00 | 0.00 | 75 | 998.3 |
| 20260505161511 | 43 | 243 | 0.0 | 2.0 | 0.00 | 0.00 | 0.00 | 78 | 998.3 |
| 20260505153010 | 40 | 270 | 3.0 | 5.0 | 0.00 | 0.00 | 0.00 | 83 | 998.1 |
| 20260505151512 | 39 | 291 | 1.0 | 3.0 | 0.00 | 0.00 | 0.00 | 83 | 998.0 |
| 20260505130105 | 36 | 70 | 2.0 | 5.0 | 0.00 | 0.00 | 0.00 | 87 | 998.1 |
| 20260505124601 | 36 | 37 | 2.0 | 5.0 | 0.00 | 0.00 | 0.00 | 87 | 998.0 |
| 20260505123101 | 36 | 150 | 0.0 | 4.0 | 0.00 | 0.00 | 0.00 | 87 | 998.2 |
| 20260505121620 | 36 | 158 | 0.0 | 0.0 | 0.00 | 0.00 | 0.00 | 87 | 998.4 |
| 20260505120050 | 36 | 159 | 0.0 | 2.0 | 0.00 | 0.00 | 0.00 | 85 | 998.7 |
| 20260505114548 | 35 | 81 | 0.0 | 0.0 | 0.00 | 0.00 | 0.00 | 85 | 998.8 |
| 20260505113052 | 35 | 81 | 0.0 | 0.0 | 0.00 | 0.00 | 0.00 | 85 | 999.0 |
| 20260505111549 | 35 | 81 | 0.0 | 0.0 | 0.00 | 0.00 | 0.00 | 86 | 999.0 |
| 20260505101541 | 37 | 208 | 0.0 | 0.0 | 0.00 | 0.00 | 0.00 | 81 | 999.5 |
| 20260505100039 | 37 | 208 | 0.0 | 2.0 | 0.00 | 0.00 | 0.00 | 81 | 999.8 |
| 20260505094529 | 38 | 209 | 0.0 | 0.0 | 0.00 | 0.00 | 0.00 | 80 | 999.8 |
| 20260505093029 | 40 | 209 | 0.0 | 0.0 | 0.00 | 0.00 | 0.00 | 77 | 999.7 |
| 20260505091527 | 40 | 208 | 0.0 | 4.0 | 0.00 | 0.00 | 0.00 | 77 | 1000.1 |
| 20260505090020 | 41 | 181 | 0.0 | 3.0 | 0.00 | 0.00 | 0.00 | 75 | 1000.1 |
| 20260505084518 | 42 | 180 | 1.0 | 3.0 | 0.00 | 0.00 | 0.00 | 74 | 1000.1 |
| 20260505083018 | 43 | 181 | 0.0 | 4.0 | 0.00 | 0.00 | 0.00 | 73 | 1000.3 |
| 20260505081514 | 43 | 179 | 2.0 | 6.0 | 0.00 | 0.00 | 0.00 | 74 | 1000.7 |
| 20260505080006 | 43 | 195 | 2.0 | 6.0 | 0.00 | 0.00 | 0.00 | 75 | 1000.7 |
| 20260505074504 | 42 | 151 | 2.0 | 7.0 | 0.00 | 0.00 | 0.00 | 74 | 1001.1 |
| 20260505073002 | 42 | 143 | 0.0 | 5.0 | 0.00 | 0.00 | 0.00 | 73 | 1001.2 |
| 20260505071600 | 42 | 156 | 1.0 | 4.0 | 0.00 | 0.00 | 0.00 | 73 | 1001.4 |
| 20260505070059 | 42 | 127 | 0.0 | 2.0 | 0.00 | 0.00 | 0.00 | 71 | 1001.9 |
| 20260505064607 | 42 | 127 | 0.0 | 3.0 | 0.00 | 0.00 | 0.00 | 70 | 1002.2 |
| 20260505063054 | 43 | 127 | 0.0 | 1.0 | 0.00 | 0.00 | 0.00 | 68 | 1002.4 |
| 20260505061552 | 44 | 126 | 0.0 | 4.0 | 0.00 | 0.00 | 0.00 | 66 | 1002.7 |
| 20260505060050 | 45 | 143 | 0.0 | 0.0 | 0.00 | 0.00 | 0.00 | 65 | 1002.9 |
| 20260505054615 | 46 | 144 | 0.0 | 3.0 | 0.00 | 0.00 | 0.00 | 63 | 1003.2 |
| 20260505053050 | 47 | 143 | 0.0 | 0.0 | 0.00 | 0.00 | 0.00 | 63 | 1003.4 |